Presure
132 123 117 105 126 128 88 109 110 142 131 144 109 147 139 159 155 99 109 89 92 169 93 92 97 100 90 97 99 105 98 98 97 96 98 117 109 116 129 120 118 121 134
125 124 178 145 176 167 123 127 127 129 129 113 90 94 144 140 148 154 158 171 177 170 92 91 98 120 132 94 113 98 116 99 98 104 98 116 113 107 109 116 118 124 140
96 101 104 122 157 134 134 164 137 160 156 122 132 86 86 87 126 146 157 153 162 165 172 128 140 166 103 101 114 99 108 122 119 100 104 100 109 116 112 116 122 128 126
95 116 131 157 182 182 190 191 162 155 168 170 167 132 103 110 120 97 147 158 166 111 165 172 163 136 160 123 99 116 130 130 124 116 115 125 99 103 121 126 136 137 133
98 91 90 92 133 160 152 156 160 198 165 178 172 162 150 141 146 130 128 111 160 159 142 169 174 166 136 161 154 154 151 136 120 121 126 126 119 112 113 123 137 141 141
131 109 88 85 96 154 152 146 140 144 145 150 179 169 166 160 125 134 135 159 146 159 161 180 171 170 168 157 141 165 160 152 131 133 134 132 138 104 102 137 144 150 145
181 181 178 164 163 162 110 91 139 140 152 152 149 175 171 170 157 124 139 117 158 138 159 164 103 168 171 169 165 165 166 167 168 163 145 144 147 160 149 148 156 152 154
189 173 185 184 179 132 85 89 149 134 156 124 152 154 165 175 158 168 146 151 140 148 131 160 162 135 119 170 150 134 166 163 164 163 161 158 153 154 159 163 152 160 153
187 192 231 74 76 181 182 184 170 160 151 87 101 114 159 165 178 173 161 144 163 141 146 141 160 161 118 161 169 166 147 144 143 144 144 138 150 153 158 161 161 157 156
202 208 214 225 229 232 222 191 187 190 170 175 165 92 95 121 186 159 177 170 134 142 140 149 142 153 159 144 151 104 167 166 110 160 153 149 151 145 139 142 104 105 131
190 194 187 209 204 215 230 233 224 190 183 186 175 169 171 172 115 146 169 182 161 171 166 140 146 149 141 157 162 120 122 165 171 167 168 163 144 156 154 151 143 135 136
192 198 204 202 204 208 216 215 224 232 220 192 180 181 181 181 187 161 141 170 183 163 169 155 146 142 147 143 141 161 156 151 106 114 169 172 176 162 150 174 177 172 170
198 195 201 195 196 167 180 189 217 217 219 223 214 191 193 183 183 175 163 161 161 180 162 160 174 137 148 138 133 133 143 153 146 155 142 104 152 157 166 157 161 163 164
159 186 223 210 196 184 188 149 204 203 215 217 214 214 211 193 193 191 178 161 172 156 167 175 158 171 164 140 142 139 119 143 134 137 147 150 148 166 135 129 150 142 165
134 151 141 142 165 177 198 177 190 201 180 177 210 215 209 209 207 199 193 184 196 170 171 159 170 171 161 170 163 130 127 127 128 131 133 136 154 145 155 160 167 156 156
139 129 139 141 139 143 131 188 150 131 156 154 184 160 187 183 164 216 202 198 186 180 180 114 170 173 161 175 167 165 150 128 151 147 126 127 123 124 133 131 133 136 137
131 118 133 141 133 138 138 96 135 218 195 205 212 189 196 202 134 206 160 197 197 194 195 200 180 169 173 166 163 167 170 163 159 168 162 161 153 146 134 133 137 132 134
130 118 149 159 112 139 116 122 142 88 146 125 180 226 156 223 222 184 136 160 203 186 195 192 190 193 195 170 175 176 130 152 163 152 167 160 162 135 159 158 138 144 136
135 126 138 211 135 146 121 134 76 121 130 132 228 242 243 195 143 104 193 209 182 193 195 197 193 179 184 144 185 166 177 180 179 143 135 167 169 142 149 153 151 130 155
131 151 135 126 126 133 123 141 138 137 124 114 107 242 90 156 235 181 216 139 200 193 209 197 179 149 187 181 189 191 191 168 165 180 179 157 152 173 172 170 139 161 168
134 127 286 133 135 252 133 126 135 140 140 109 297 132 265 245 245 251 133 229 225 204 132 235 201 197 189 187 185 183 198 192 190 164 134 178 180 164 157 152 159 137 170
246 265 153 187 226 131 125 162 226 124 141 100 141 151 248 217 305 247 231 245 234 156 210 214 201 187 195 194 135 185 184 178 170 170 156 166 167 171 168 171 178 170 160
246 253 208 140 242 256 277 276 128 263 133 260 126 119 305 316 246 307 190 180 240 148 162 143 200 168 215 159 159 187 187 166 183 174 171 177 168 163 168 170 157 159 169
219 225 227 241 269 286 278 276 155 279 277 146 196 342 184 364 390 331 321 304 231 240 210 167 205 205 128 200 201 189 154 188 177 182 184 180 178 172 169 166 168 163 168
236 229 240 243 271 274 278 273 193 263 270 117 228 127 341 348 362 384 340 317 310 248 244 181 209 164 138 133 195 193 148 179 196 188 173 183 183 176 175 178 168 170 164
238 238 238 239 253 266 276 273 266 265 263 126 141 334 325 318 365 358 396 325 309 312 247 252 217 214 164 207 162 148 202 184 210 200 185 186 196 177 175 170 175 177 174
Wind_Speed
33 32 33 30 36 35 23 26 23 30 29 28 19 27 28 24 23 24 21 12 15 31 15 13 16 17 9 14 16 17 16 15 14 13 13 20 17 18 22 19 20 21 24
36 35 44 37 39 40 35 36 34 33 34 26 19 17 29 28 26 26 25 26 25 30 16 15 21 25 29 14 25 19 25 16 17 19 15 22 21 17 18 21 22 25 28
31 33 35 37 42 40 42 40 38 38 37 32 35 18 18 19 28 30 28 29 30 31 33 26 34 33 22 23 28 22 25 28 27 19 21 18 21 24 22 24 28 29 28
31 35 37 38 45 44 48 48 42 38 41 42 41 36 27 29 28 24 33 32 31 30 34 35 37 37 36 28 24 31 34 34 31 28 28 29 21 22 29 32 31 31 32
32 33 33 31 37 40 39 39 41 51 40 43 45 43 40 37 38 33 30 26 34 34 34 37 38 39 37 37 40 40 39 37 34 34 36 34 32 29 29 34 36 34 34
42 38 34 33 34 43 42 40 41 40 41 43 48 50 48 45 39 39 39 40 37 37 36 39 39 40 39 39 39 38 38 40 38 39 38 37 37 28 27 34 36 34 35
54 53 52 51 52 51 39 35 43 42 45 47 44 52 53 51 47 41 42 35 43 42 40 39 25 40 39 40 43 41 39 38 36 36 40 39 36 33 35 36 35 35 35
56 51 54 53 55 44 34 34 48 45 50 41 50 49 50 54 49 53 47 47 45 44 42 42 42 35 34 41 43 42 40 40 39 38 38 37 36 36 36 35 37 36 36
45 47 55 28 35 57 58 60 56 53 49 34 37 41 52 54 58 59 54 48 52 47 47 46 45 43 35 42 44 43 39 43 41 41 40 39 37 37 36 36 37 38 38
49 52 54 55 57 59 64 63 62 62 58 59 60 37 37 43 60 57 62 60 48 50 50 50 49 46 44 47 43 32 45 45 34 42 41 41 40 40 41 40 36 37 40
49 53 53 56 56 57 59 62 67 64 62 65 63 63 63 62 43 54 61 66 59 61 58 52 52 51 47 47 47 39 41 47 46 45 46 44 42 43 42 43 44 42 43
50 51 54 55 56 57 59 59 61 65 70 68 65 68 70 68 68 61 53 62 69 61 64 59 57 53 51 48 47 49 49 46 40 43 47 48 49 46 42 45 44 44 46
52 49 55 55 56 49 52 55 62 63 66 70 73 70 74 73 71 68 65 64 62 71 63 60 67 54 55 50 48 48 49 48 45 47 45 42 46 45 46 44 44 45 48
48 50 62 62 59 53 54 45 61 61 65 68 71 74 77 76 77 76 72 67 73 60 66 70 62 69 65 53 54 54 48 49 45 47 47 47 45 50 44 47 45 46 48
42 48 45 43 48 50 61 56 58 64 58 58 68 73 75 79 82 82 79 79 81 72 72 65 70 73 66 68 65 53 49 48 45 48 46 47 49 47 48 47 48 49 50
48 42 45 47 47 48 44 62 47 44 52 53 62 55 69 69 61 86 84 84 83 81 77 42 75 76 69 76 69 70 63 53 60 58 50 47 48 47 46 49 49 50 50
47 42 46 50 47 46 46 40 46 80 72 74 78 64 69 76 50 82 60 83 85 90 84 85 81 77 79 75 70 72 75 69 65 70 65 62 57 55 52 51 53 52 51
50 45 55 55 46 48 44 46 49 29 50 47 68 89 59 85 86 73 50 63 89 84 92 88 86 84 87 80 81 81 57 62 69 63 72 63 65 59 62 61 57 57 54
54 52 51 58 47 53 49 50 28 53 47 48 89 90 95 79 59 47 77 88 75 88 94 93 88 82 87 61 87 77 81 79 79 64 62 71 73 61 61 63 61 57 62
56 63 55 48 48 50 51 53 53 55 50 36 38 94 38 66 99 72 86 56 87 86 97 94 79 64 88 86 86 86 87 74 72 79 80 67 68 78 75 74 63 69 70
61 58 58 54 53 66 52 50 55 57 58 49 72 49 97 100 103 102 59 97 97 91 46 95 96 91 89 88 87 83 86 84 81 74 63 79 77 76 68 68 71 58 70
63 56 64 61 57 54 53 60 59 56 55 44 52 53 73 70 91 106 99 106 102 63 98 98 92 82 89 92 44 86 84 80 78 77 73 77 77 78 77 75 76 72 65
64 60 58 62 57 56 59 59 57 62 53 63 57 47 78 80 79 96 81 78 105 56 65 59 95 71 99 68 73 89 87 69 85 83 83 83 81 76 78 76 72 73 72
65 62 61 57 57 54 59 59 57 59 59 55 58 58 52 53 56 93 98 102 101 107 92 73 94 91 56 91 96 88 68 91 84 84 85 84 84 80 78 79 76 74 76
69 64 63 60 55 55 58 59 61 58 57 54 59 53 56 57 59 62 99 102 103 109 106 83 98 75 50 54 95 88 65 83 92 88 83 85 86 82 79 79 78 77 76
71 68 64 62 57 55 56 57 58 58 55 57 59 51 51 51 55 66 67 102 103 105 105 105 103 103 71 104 70 67 94 85 93 90 86 85 83 79 75 78 81 83 81
Wind_Direction
241 236 239 242 246 246 238 238 241 238 241 238 245 241 246 225 232 251 254 258 265 226 273 277 273 272 272 281 285 272 285 282 275 290 291 264 275 270 273 275 278 281 278
239 238 245 244 245 241 245 245 241 239 239 239 243 243 240 243 238 233 237 242 225 231 270 272 270 254 243 272 265 284 260 268 284 280 286 269 273 285 285 280 281 282 277
227 233 236 242 246 247 249 240 245 248 247 242 238 234 240 245 244 241 234 237 242 246 233 247 241 232 264 270 262 278 276 262 262 287 285 289 283 279 286 282 278 279 282
226 244 248 247 246 244 241 241 238 250 243 241 243 239 241 245 241 251 240 236 239 249 247 233 238 240 237 252 270 263 250 253 261 270 273 265 282 283 275 274 272 273 277
238 229 242 242 248 247 243 243 246 243 245 240 239 244 243 240 241 242 243 247 235 238 247 243 229 236 239 238 243 244 243 250 263 263 259 261 270 281 281 274 269 269 272
244 241 239 247 241 251 249 244 247 248 252 253 240 240 242 244 245 245 246 241 243 236 240 239 240 238 238 248 247 240 243 248 253 254 256 259 258 278 281 267 269 270 274
247 245 243 248 250 250 245 249 247 247 245 249 250 237 239 240 245 245 243 247 242 246 238 240 251 243 240 240 243 242 242 242 242 247 257 258 259 257 262 265 267 270 273
250 248 249 247 245 244 246 245 244 244 247 246 249 248 243 239 244 243 244 242 245 244 247 241 240 246 253 243 247 252 245 247 248 249 251 254 258 260 259 260 266 266 270
249 246 244 253 256 248 248 246 245 249 242 249 247 247 245 243 238 240 243 243 240 245 246 247 242 241 251 242 244 248 252 251 254 255 256 261 258 260 261 260 262 266 267
248 249 249 248 247 245 241 247 247 242 244 240 247 249 250 249 236 248 239 242 247 245 247 246 248 245 239 247 243 257 248 249 264 254 256 257 258 260 264 265 278 280 276
247 248 252 249 249 248 247 242 242 244 243 240 243 246 245 243 249 246 244 237 242 242 241 250 249 247 248 243 243 251 255 250 250 253 254 256 260 257 259 261 265 273 275
250 249 250 250 250 250 249 247 243 241 241 242 242 243 243 243 242 247 249 246 238 241 243 245 249 250 249 252 254 245 248 252 259 263 252 255 256 260 263 260 261 263 263
256 251 251 251 251 250 251 251 247 243 240 241 239 241 240 243 242 242 246 248 248 240 242 244 242 250 250 250 252 255 255 251 257 255 261 265 259 260 258 263 262 263 264
247 255 248 253 251 252 250 244 249 246 244 240 239 239 238 241 241 242 242 247 246 247 248 242 250 246 250 248 251 254 250 257 260 262 259 259 261 258 269 266 266 271 266
251 245 253 253 250 250 254 251 251 250 245 242 241 239 239 238 238 239 241 241 238 246 246 248 247 246 251 248 251 251 251 252 252 257 261 263 259 262 260 258 260 265 267
249 252 248 251 254 255 257 252 253 249 249 253 243 249 242 242 246 237 239 239 242 244 242 257 247 247 252 249 250 252 253 252 256 257 254 257 257 261 265 268 270 271 272
249 250 248 248 249 250 253 243 244 248 257 254 248 246 243 238 256 237 245 238 240 243 241 238 244 248 248 251 253 253 252 256 258 258 262 262 262 262 261 261 262 265 266
250 252 252 252 242 248 253 250 254 250 250 254 254 246 254 242 238 243 252 245 237 242 243 243 241 241 241 249 250 251 254 255 257 256 262 265 267 260 268 269 262 267 264
252 252 252 256 245 249 249 251 246 251 254 248 248 243 239 249 248 248 238 236 239 238 241 244 243 244 246 250 247 252 252 251 251 258 259 263 264 258 263 268 267 263 275
250 254 252 243 241 247 243 249 250 251 252 249 252 245 256 244 241 248 242 256 238 240 237 242 246 251 245 248 247 246 248 253 256 254 257 260 260 264 265 268 265 270 276
248 251 263 249 248 259 246 241 249 248 250 244 251 243 241 243 241 236 248 239 236 240 248 237 242 242 241 245 249 250 248 249 249 257 263 258 258 264 264 266 270 276 275
265 265 253 256 258 248 241 253 257 248 250 246 252 250 246 245 242 239 240 236 236 238 237 237 240 241 242 242 251 248 249 250 253 252 255 258 261 262 264 266 269 272 276
268 268 258 248 262 262 261 260 246 261 248 266 245 253 256 246 244 238 242 243 234 258 238 253 239 244 238 245 249 246 247 252 248 248 251 254 257 261 265 267 269 273 274
263 264 264 265 269 268 264 263 249 269 270 250 261 273 249 258 256 233 232 231 234 232 233 243 239 237 252 241 242 244 250 247 250 250 252 255 257 259 262 265 267 269 272
264 264 267 268 271 270 268 268 258 265 271 247 269 247 263 260 252 247 226 227 226 232 229 238 235 253 248 254 241 242 253 246 247 249 252 252 255 257 261 265 269 270 269
260 263 265 268 270 271 272 273 276 278 275 251 251 273 263 260 254 242 239 223 224 222 228 224 232 233 240 238 252 251 242 245 244 245 251 255 254 261 262 264 265 266 268